Location: Boiro
(42.6475°N, 8.8834°W)
Time: 08:47:23
(UTC+02:00)

First-Move - Pass Details

Date: 16 April 2024
Orbit: 538 x 600 km, 97.7° (Epoch: 20 May)

Event Time Altitude Azimuth Distance (km) Brightness Sun altitude
Rises 07:14:34 0° 355° (N) 2,852 ? -7.4°
Reaches altitude 10° 07:17:22 10° 335° (NNW) 1,954 ? -6.9°
Maximum altitude 07:20:04 17° 295° (WNW) 1,562 ? -6.4°
Drops below altitude 10° 07:22:47 10° 256° (WSW) 1,958 ? -6.0°
Enters shadow 07:23:37 - 248° (WSW) 2,195 ? -5.8°
